| time (UTC) | temp F | wind direction | speed MPH | gust MPH | rain 1hr in | rain 24hr in | rain mn in | humidity % | barometer mb |
| 20260906112037 | 71 | 227 | 0.0 | 0.0 | 0.00 | 0.06 | 0.06 | 99 | 1013.5 |
| 20260906111536 | 71 | 226 | 0.0 | 0.0 | 0.00 | 0.06 | 0.06 | 99 | 1013.4 |
| 20260906111031 | 71 | 214 | 0.0 | 0.0 | 0.00 | 0.06 | 0.06 | 99 | 1013.2 |
| 20260906110531 | 71 | 234 | 1.0 | 1.0 | 0.00 | 0.06 | 0.06 | 99 | 1013.4 |
| 20260906110030 | 71 | 225 | 0.0 | 0.0 | 0.00 | 0.06 | 0.06 | 99 | 1013.1 |
| 20260906105526 | 71 | 231 | 0.0 | 0.0 | 0.00 | 0.06 | 0.06 | 99 | 1013.2 |
| 20260906105022 | 71 | 224 | 0.0 | 0.0 | 0.00 | 0.06 | 0.06 | 99 | 1013.5 |
| 20260906104520 | 71 | 230 | 0.0 | 0.0 | 0.00 | 0.06 | 0.06 | 99 | 1013.2 |
| 20260906104015 | 71 | 223 | 0.0 | 0.0 | 0.00 | 0.06 | 0.06 | 99 | 1013.1 |
| 20260906103513 | 71 | 228 | 0.0 | 0.0 | 0.00 | 0.06 | 0.06 | 99 | 1013.1 |
| 20260906103009 | 71 | 230 | 0.0 | 0.0 | 0.00 | 0.06 | 0.06 | 99 | 1013.2 |
| 20260906102508 | 71 | 232 | 0.0 | 0.0 | 0.00 | 0.06 | 0.06 | 99 | 1013.1 |
| 20260906102003 | 71 | 237 | 0.0 | 1.0 | 0.00 | 0.06 | 0.06 | 99 | 1013.2 |
| 20260906101458 | 71 | 221 | 1.0 | 1.0 | 0.00 | 0.06 | 0.06 | 99 | 1013.1 |
| 20260906100953 | 71 | 226 | 0.0 | 1.0 | 0.00 | 0.06 | 0.06 | 99 | 1013.2 |
| 20260906100448 | 71 | 228 | 0.0 | 0.0 | 0.00 | 0.06 | 0.06 | 99 | 1013.1 |
| 20260906095947 | 71 | 233 | 1.0 | 1.0 | 0.00 | 0.06 | 0.06 | 99 | 1013.3 |
| 20260906095443 | 71 | 230 | 0.0 | 0.0 | 0.00 | 0.06 | 0.06 | 99 | 1013.1 |
| 20260906094938 | 71 | 230 | 0.0 | 0.0 | 0.00 | 0.06 | 0.06 | 99 | 1013.1 |
| 20260906094432 | 72 | 221 | 0.0 | 0.0 | 0.00 | 0.06 | 0.06 | 99 | 1013.1 |
| 20260906093928 | 72 | 217 | 1.0 | 2.0 | 0.00 | 0.06 | 0.06 | 99 | 1013.2 |
| 20260906093425 | 72 | 224 | 2.0 | 2.0 | 0.00 | 0.06 | 0.06 | 99 | 1013.2 |
| 20260906092924 | 72 | 227 | 1.0 | 1.0 | 0.00 | 0.06 | 0.06 | 99 | 1013.1 |
| 20260906092424 | 71 | 232 | 0.0 | 0.0 | 0.00 | 0.06 | 0.06 | 99 | 1013.1 |
| 20260906091919 | 71 | 239 | 0.0 | 1.0 | 0.00 | 0.06 | 0.06 | 99 | 1012.9 |
| 20260906091415 | 72 | 226 | 0.0 | 0.0 | 0.00 | 0.06 | 0.06 | 99 | 1012.9 |
| 20260906090912 | 72 | 232 | 0.0 | 0.0 | 0.00 | 0.06 | 0.06 | 99 | 1013.1 |
| 20260906090411 | 72 | 217 | 0.0 | 1.0 | 0.00 | 0.06 | 0.06 | 99 | 1013.1 |
| 20260906085906 | 72 | 226 | 0.0 | 1.0 | 0.00 | 0.06 | 0.06 | 99 | 1013.0 |
| 20260906085400 | 72 | 234 | 0.0 | 1.0 | 0.00 | 0.06 | 0.06 | 99 | 1013.0 |
| 20260906084859 | 72 | 233 | 0.0 | 0.0 | 0.00 | 0.06 | 0.06 | 99 | 1013.1 |
| 20260906084354 | 72 | 234 | 0.0 | 1.0 | 0.00 | 0.06 | 0.06 | 99 | 1012.8 |
| 20260906083849 | 72 | 236 | 0.0 | 1.0 | 0.00 | 0.06 | 0.06 | 99 | 1013.1 |
| 20260906083344 | 72 | 226 | 1.0 | 2.0 | 0.00 | 0.06 | 0.06 | 99 | 1013.1 |
| 20260906082843 | 72 | 220 | 1.0 | 1.0 | 0.00 | 0.06 | 0.06 | 99 | 1013.2 |
| 20260906082339 | 72 | 224 | 1.0 | 1.0 | 0.00 | 0.06 | 0.06 | 99 | 1013.0 |
| 20260906081835 | 72 | 227 | 1.0 | 2.0 | 0.00 | 0.06 | 0.06 | 99 | 1013.0 |
| 20260906081330 | 72 | 220 | 1.0 | 1.0 | 0.00 | 0.06 | 0.06 | 99 | 1012.9 |
| 20260906080826 | 72 | 226 | 0.0 | 0.0 | 0.00 | 0.06 | 0.06 | 99 | 1012.9 |
| 20260906080323 | 72 | 222 | 0.0 | 0.0 | 0.00 | 0.06 | 0.06 | 99 | 1013.0 |
| 20260906075821 | 72 | 220 | 1.0 | 2.0 | 0.00 | 0.06 | 0.06 | 99 | 1013.0 |
| 20260906075316 | 72 | 224 | 0.0 | 0.0 | 0.00 | 0.06 | 0.06 | 99 | 1012.7 |
| 20260906074812 | 72 | 236 | 0.0 | 0.0 | 0.00 | 0.06 | 0.06 | 99 | 1012.8 |
| 20260906074311 | 73 | 233 | 1.0 | 1.0 | 0.00 | 0.06 | 0.06 | 99 | 1012.9 |
| 20260906073810 | 73 | 235 | 1.0 | 1.0 | 0.00 | 0.06 | 0.06 | 99 | 1012.9 |
| 20260906073305 | 73 | 217 | 1.0 | 1.0 | 0.00 | 0.06 | 0.06 | 99 | 1013.0 |
| 20260906072802 | 73 | 225 | 1.0 | 2.0 | 0.00 | 0.06 | 0.06 | 99 | 1012.9 |
| 20260906072257 | 73 | 226 | 1.0 | 2.0 | 0.00 | 0.06 | 0.06 | 99 | 1012.9 |
| 20260906071753 | 73 | 232 | 0.0 | 1.0 | 0.00 | 0.06 | 0.06 | 99 | 1012.7 |
| 20260906071253 | 73 | 229 | 1.0 | 1.0 | 0.00 | 0.06 | 0.06 | 99 | 1012.8 |
| 20260906070749 | 73 | 215 | 1.0 | 2.0 | 0.00 | 0.06 | 0.06 | 99 | 1012.9 |
| 20260906070244 | 73 | 239 | 1.0 | 1.0 | 0.00 | 0.06 | 0.06 | 99 | 1012.8 |
| 20260906065744 | 73 | 228 | 1.0 | 1.0 | 0.00 | 0.06 | 0.06 | 99 | 1012.8 |
| 20260906065240 | 73 | 220 | 1.0 | 1.0 | 0.00 | 0.06 | 0.06 | 99 | 1012.8 |
| 20260906064735 | 73 | 225 | 0.0 | 0.0 | 0.00 | 0.06 | 0.06 | 99 | 1012.7 |
| 20260906064231 | 73 | 232 | 0.0 | 0.0 | 0.00 | 0.06 | 0.06 | 99 | 1012.9 |
| 20260906063726 | 74 | 232 | 0.0 | 0.0 | 0.00 | 0.06 | 0.06 | 99 | 1012.7 |
| 20260906063221 | 74 | 222 | 0.0 | 0.0 | 0.00 | 0.06 | 0.06 | 99 | 1012.8 |
| 20260906062716 | 74 | 235 | 0.0 | 0.0 | 0.00 | 0.06 | 0.06 | 99 | 1013.0 |
| 20260906062215 | 74 | 232 | 0.0 | 0.0 | 0.00 | 0.06 | 0.06 | 99 | 1013.1 |
| 20260906061712 | 74 | 219 | 0.0 | 0.0 | 0.00 | 0.06 | 0.06 | 99 | 1013.0 |
| 20260906061207 | 74 | 212 | 0.0 | 0.0 | 0.00 | 0.06 | 0.06 | 99 | 1013.4 |
| 20260906060702 | 74 | 209 | 0.0 | 0.0 | 0.00 | 0.06 | 0.06 | 99 | 1013.8 |
| 20260906060159 | 74 | 218 | 0.0 | 0.0 | 0.00 | 0.06 | 0.06 | 99 | 1013.7 |
| 20260906055654 | 74 | 226 | 0.0 | 0.0 | 0.00 | 0.06 | 0.06 | 99 | 1013.7 |
| 20260906055150 | 74 | 234 | 0.0 | 0.0 | 0.00 | 0.06 | 0.06 | 99 | 1013.5 |
| 20260906054645 | 74 | 215 | 0.0 | 0.0 | 0.05 | 0.06 | 0.06 | 99 | 1013.4 |
| 20260906054140 | 74 | 229 | 0.0 | 0.0 | 0.05 | 0.06 | 0.06 | 99 | 1013.8 |
| 20260906053637 | 74 | 207 | 1.0 | 1.0 | 0.00 | 0.05 | 0.05 | 99 | 1013.8 |
| 20260906053132 | 74 | 256 | 0.0 | 0.0 | 0.07 | 0.05 | 0.05 | 99 | 1013.4 |
| 20260906052627 | 74 | 217 | 0.0 | 0.0 | 0.07 | 0.05 | 0.05 | 98 | 1013.3 |
| 20260906052124 | 75 | 235 | 1.0 | 1.0 | 0.05 | 0.04 | 0.04 | 98 | 1013.5 |
| 20260906051620 | 75 | 233 | 2.0 | 2.0 | 0.12 | 0.04 | 0.04 | 97 | 1014.2 |
| 20260906051115 | 76 | 235 | 0.0 | 0.0 | 0.12 | 0.03 | 0.03 | 95 | 1014.5 |
| 20260906050610 | 76 | 230 | 0.0 | 0.0 | 0.12 | 0.02 | 0.02 | 94 | 1014.4 |
| 20260906050105 | 77 | 233 | 0.0 | 0.0 | 0.07 | 0.01 | 0.01 | 93 | 1014.5 |
| 20260906045603 | 77 | 256 | 1.0 | 1.0 | 0.00 | 0.02 | 0.02 | 92 | 1014.6 |
| 20260906045059 | 77 | 235 | 1.0 | 1.0 | 0.00 | 0.02 | 0.02 | 92 | 1014.5 |
| 20260906044554 | 77 | 228 | 0.0 | 0.0 | 0.00 | 0.02 | 0.02 | 92 | 1014.6 |
| 20260906044049 | 78 | 247 | 0.0 | 1.0 | 0.00 | 0.02 | 0.02 | 90 | 1014.4 |
| 20260906043545 | 78 | 249 | 0.0 | 0.0 | 0.00 | 0.02 | 0.02 | 89 | 1014.2 |
| 20260906043041 | 78 | 282 | 0.0 | 1.0 | 0.00 | 0.02 | 0.02 | 88 | 1014.2 |
| 20260906042539 | 77 | 252 | 1.0 | 1.0 | 0.00 | 0.02 | 0.02 | 90 | 1014.2 |
| 20260906042034 | 77 | 342 | 4.0 | 5.0 | 0.00 | 0.02 | 0.02 | 91 | 1014.6 |
| 20260906041525 | 77 | 332 | 3.0 | 3.0 | 0.00 | 0.02 | 0.02 | 91 | 1014.1 |
| 20260906041020 | 77 | 233 | 1.0 | 1.0 | 0.00 | 0.02 | 0.02 | 90 | 1013.3 |
| 20260906040514 | 77 | 230 | 0.0 | 1.0 | 0.00 | 0.02 | 0.02 | 90 | 1013.2 |
| 20260906040010 | 77 | 230 | 0.0 | 0.0 | 0.00 | 0.02 | 0.02 | 90 | 1013.4 |
| 20260906035459 | 77 | 237 | 1.0 | 1.0 | 0.00 | 0.02 | 0.02 | 90 | 1013.8 |
| 20260906034955 | 77 | 232 | 0.0 | 1.0 | 0.00 | 0.02 | 0.02 | 90 | 1014.0 |
| 20260906034454 | 77 | 222 | 0.0 | 0.0 | 0.00 | 0.02 | 0.02 | 91 | 1014.4 |
| 20260906033950 | 77 | 235 | 1.0 | 1.0 | 0.00 | 0.02 | 0.02 | 91 | 1014.2 |
| 20260906033449 | 77 | 221 | 0.0 | 0.0 | 0.00 | 0.02 | 0.02 | 91 | 1014.3 |
| 20260906032945 | 76 | 225 | 0.0 | 1.0 | 0.00 | 0.02 | 0.02 | 91 | 1014.1 |
| 20260906032442 | 77 | 222 | 0.0 | 0.0 | 0.00 | 0.02 | 0.02 | 92 | 1013.7 |
| 20260906031937 | 77 | 220 | 0.0 | 0.0 | 0.00 | 0.02 | 0.02 | 91 | 1013.3 |
| 20260906031432 | 77 | 230 | 0.0 | 0.0 | 0.00 | 0.02 | 0.02 | 90 | 1013.4 |
| 20260906030927 | 77 | 234 | 1.0 | 1.0 | 0.00 | 0.02 | 0.02 | 91 | 1013.1 |
| 20260906030422 | 77 | 228 | 0.0 | 0.0 | 0.00 | 0.02 | 0.02 | 91 | 1013.1 |
| 20260906025916 | 77 | 221 | 0.0 | 0.0 | 0.00 | 0.02 | 0.02 | 91 | 1013.2 |
| 20260906025411 | 77 | 221 | 0.0 | 0.0 | 0.00 | 0.02 | 0.02 | 91 | 1013.5 |
| 20260906024910 | 77 | 221 | 0.0 | 0.0 | 0.00 | 0.02 | 0.02 | 90 | 1013.4 |
| 20260906024409 | 77 | 221 | 0.0 | 0.0 | 0.00 | 0.02 | 0.02 | 91 | 1013.4 |
| 20260906023904 | 77 | 221 | 0.0 | 0.0 | 0.00 | 0.02 | 0.02 | 91 | 1013.1 |
| 20260906023400 | 77 | 225 | 0.0 | 0.0 | 0.00 | 0.02 | 0.02 | 90 | 1013.2 |
| 20260906022855 | 77 | 226 | 0.0 | 0.0 | 0.00 | 0.02 | 0.02 | 91 | 1012.9 |
| 20260906022350 | 77 | 230 | 0.0 | 0.0 | 0.00 | 0.02 | 0.02 | 90 | 1012.6 |
| 20260906021846 | 77 | 228 | 1.0 | 1.0 | 0.00 | 0.02 | 0.02 | 90 | 1012.7 |
| 20260906021345 | 77 | 232 | 0.0 | 1.0 | 0.00 | 0.02 | 0.02 | 90 | 1012.6 |
| 20260906020839 | 77 | 234 | 2.0 | 2.0 | 0.00 | 0.02 | 0.02 | 90 | 1012.5 |
| 20260906020339 | 78 | 230 | 0.0 | 0.0 | 0.00 | 0.02 | 0.02 | 90 | 1012.7 |
| 20260906015834 | 78 | 230 | 0.0 | 0.0 | 0.00 | 0.02 | 0.02 | 89 | 1012.4 |
| 20260906015332 | 79 | 230 | 0.0 | 0.0 | 0.00 | 0.02 | 0.02 | 88 | 1012.6 |
| 20260906014827 | 79 | 236 | 0.0 | 0.0 | 0.00 | 0.02 | 0.02 | 86 | 1012.4 |
| 20260906014322 | 79 | 234 | 0.0 | 0.0 | 0.00 | 0.02 | 0.02 | 86 | 1012.4 |
| 20260906013818 | 79 | 220 | 0.0 | 0.0 | 0.00 | 0.02 | 0.02 | 85 | 1012.4 |
| 20260906013313 | 79 | 232 | 0.0 | 0.0 | 0.00 | 0.02 | 0.02 | 85 | 1012.1 |
| 20260906012809 | 80 | 219 | 0.0 | 0.0 | 0.00 | 0.02 | 0.02 | 85 | 1012.3 |
| 20260906012309 | 80 | 226 | 0.0 | 0.0 | 0.00 | 0.02 | 0.02 | 83 | 1012.1 |
| 20260906011804 | 80 | 227 | 0.0 | 0.0 | 0.00 | 0.02 | 0.02 | 83 | 1011.9 |
| 20260906011303 | 80 | 231 | 0.0 | 1.0 | 0.00 | 0.02 | 0.02 | 83 | 1012.0 |
| 20260906010759 | 80 | 226 | 0.0 | 0.0 | 0.00 | 0.02 | 0.02 | 83 | 1012.3 |
| 20260906010256 | 80 | 226 | 0.0 | 1.0 | 0.00 | 0.02 | 0.02 | 83 | 1012.3 |
| 20260906005750 | 81 | 230 | 1.0 | 2.0 | 0.00 | 0.02 | 0.02 | 83 | 1012.4 |
| 20260906005250 | 80 | 221 | 0.0 | 0.0 | 0.00 | 0.02 | 0.02 | 83 | 1012.5 |
| 20260906004749 | 81 | 230 | 0.0 | 0.0 | 0.00 | 0.02 | 0.02 | 83 | 1012.5 |
| 20260906004244 | 81 | 218 | 0.0 | 0.0 | 0.00 | 0.02 | 0.02 | 83 | 1012.6 |
| 20260906003739 | 80 | 239 | 1.0 | 1.0 | 0.00 | 0.02 | 0.02 | 84 | 1012.5 |
| 20260906003235 | 81 | 244 | 0.0 | 0.0 | 0.00 | 0.02 | 0.02 | 84 | 1012.4 |
| 20260906002734 | 81 | 245 | 0.0 | 0.0 | 0.00 | 0.02 | 0.02 | 82 | 1012.5 |
| 20260906002229 | 81 | 244 | 0.0 | 0.0 | 0.00 | 0.02 | 0.02 | 82 | 1012.7 |
| 20260906001724 | 82 | 230 | 0.0 | 1.0 | 0.00 | 0.02 | 0.02 | 82 | 1012.4 |
| 20260906001219 | 82 | 224 | 0.0 | 0.0 | 0.00 | 0.02 | 0.02 | 81 | 1012.6 |
| 20260906000715 | 82 | 230 | 0.0 | 0.0 | 0.00 | 0.02 | 0.02 | 80 | 1012.7 |
| 20260906000212 | 83 | 230 | 0.0 | 0.0 | 0.00 | 0.02 | 0.02 | 78 | 1012.8 |
| 20260905235709 | 83 | 220 | 0.0 | 0.0 | 0.00 | 0.02 | 0.02 | 77 | 1012.4 |
| 20260905235204 | 84 | 228 | 1.0 | 1.0 | 0.00 | 0.02 | 0.02 | 76 | 1012.4 |
| 20260905234659 | 84 | 231 | 1.0 | 1.0 | 0.00 | 0.02 | 0.02 | 75 | 1012.4 |
| 20260905234155 | 84 | 228 | 0.0 | 1.0 | 0.00 | 0.02 | 0.02 | 75 | 1012.4 |
| 20260905233650 | 84 | 221 | 0.0 | 0.0 | 0.00 | 0.02 | 0.02 | 75 | 1012.4 |
| 20260905233149 | 85 | 231 | 0.0 | 0.0 | 0.00 | 0.02 | 0.02 | 75 | 1012.2 |
| 20260905232644 | 85 | 232 | 1.0 | 1.0 | 0.00 | 0.02 | 0.02 | 75 | 1012.3 |
| 20260905232140 | 86 | 228 | 1.0 | 2.0 | 0.00 | 0.02 | 0.02 | 75 | 1012.3 |
| 20260905231635 | 86 | 213 | 1.0 | 1.0 | 0.00 | 0.02 | 0.02 | 74 | 1012.3 |
| 20260905231131 | 87 | 229 | 0.0 | 0.0 | 0.00 | 0.02 | 0.02 | 72 | 1012.0 |
| 20260905230627 | 87 | 228 | 0.0 | 0.0 | 0.00 | 0.02 | 0.02 | 70 | 1012.1 |
| 20260905230124 | 87 | 237 | 0.0 | 0.0 | 0.00 | 0.02 | 0.02 | 69 | 1012.0 |
| 20260905225618 | 87 | 239 | 1.0 | 2.0 | 0.00 | 0.02 | 0.02 | 68 | 1012.2 |
| 20260905225113 | 88 | 211 | 1.0 | 1.0 | 0.00 | 0.02 | 0.02 | 66 | 1012.1 |
| 20260905224608 | 89 | 226 | 1.0 | 1.0 | 0.00 | 0.02 | 0.02 | 62 | 1012.2 |
| 20260905224107 | 89 | 228 | 1.0 | 1.0 | 0.00 | 0.02 | 0.02 | 60 | 1012.3 |
| 20260905223604 | 89 | 225 | 1.0 | 2.0 | 0.00 | 0.02 | 0.02 | 61 | 1012.2 |
| 20260905223101 | 89 | 224 | 1.0 | 1.0 | 0.00 | 0.02 | 0.02 | 61 | 1012.2 |
| 20260905222601 | 90 | 237 | 1.0 | 1.0 | 0.00 | 0.02 | 0.02 | 62 | 1012.2 |
| 20260905222056 | 89 | 228 | 1.0 | 1.0 | 0.00 | 0.02 | 0.02 | 61 | 1012.6 |
| 20260905221552 | 90 | 218 | 2.0 | 2.0 | 0.00 | 0.02 | 0.02 | 61 | 1012.2 |
| 20260905221048 | 89 | 218 | 0.0 | 0.0 | 0.00 | 0.02 | 0.02 | 61 | 1012.4 |
| 20260905220543 | 89 | 223 | 1.0 | 1.0 | 0.00 | 0.02 | 0.02 | 61 | 1012.4 |
| 20260905220039 | 90 | 222 | 1.0 | 1.0 | 0.00 | 0.02 | 0.02 | 60 | 1012.6 |
| 20260905215538 | 89 | 229 | 0.0 | 1.0 | 0.00 | 0.02 | 0.02 | 60 | 1012.2 |
| 20260905215035 | 90 | 226 | 1.0 | 1.0 | 0.00 | 0.02 | 0.02 | 59 | 1012.3 |
| 20260905214531 | 89 | 238 | 1.0 | 1.0 | 0.00 | 0.02 | 0.02 | 60 | 1012.5 |
| 20260905214025 | 89 | 121 | 1.0 | 2.0 | 0.00 | 0.02 | 0.02 | 58 | 1012.5 |
| 20260905213521 | 89 | 206 | 2.0 | 3.0 | 0.00 | 0.02 | 0.02 | 61 | 1012.5 |
| 20260905213016 | 90 | 195 | 2.0 | 2.0 | 0.00 | 0.02 | 0.02 | 60 | 1012.5 |
| 20260905212511 | 90 | 226 | 2.0 | 2.0 | 0.00 | 0.02 | 0.02 | 60 | 1012.8 |
| 20260905212010 | 88 | 230 | 0.0 | 1.0 | 0.00 | 0.02 | 0.02 | 63 | 1012.6 |
| 20260905211506 | 86 | 238 | 0.0 | 0.0 | 0.00 | 0.02 | 0.02 | 76 | 1012.6 |
| 20260905211002 | 85 | 237 | 0.0 | 0.0 | 0.00 | 0.02 | 0.02 | 78 | 1012.7 |
| 20260905210457 | 85 | 238 | 0.0 | 0.0 | 0.00 | 0.02 | 0.02 | 78 | 1012.7 |
| 20260905205956 | 85 | 238 | 0.0 | 0.0 | 0.00 | 0.02 | 0.02 | 75 | 1012.6 |
| 20260905205451 | 85 | 238 | 0.0 | 0.0 | 0.00 | 0.02 | 0.02 | 75 | 1012.9 |
| 20260905204950 | 85 | 238 | 0.0 | 0.0 | 0.00 | 0.02 | 0.02 | 75 | 1012.8 |
| 20260905204446 | 84 | 238 | 0.0 | 0.0 | 0.00 | 0.02 | 0.02 | 72 | 1012.7 |
| 20260905203945 | 84 | 238 | 0.0 | 0.0 | 0.00 | 0.02 | 0.02 | 72 | 1012.9 |
| 20260905203440 | 84 | 239 | 0.0 | 0.0 | 0.00 | 0.02 | 0.02 | 73 | 1013.0 |
| 20260905202936 | 84 | 239 | 0.0 | 0.0 | 0.00 | 0.02 | 0.02 | 74 | 1013.0 |
| 20260905202431 | 84 | 240 | 0.0 | 0.0 | 0.00 | 0.02 | 0.02 | 71 | 1013.3 |
| 20260905201927 | 84 | 240 | 0.0 | 0.0 | 0.00 | 0.02 | 0.02 | 72 | 1013.2 |
| 20260905201422 | 84 | 241 | 0.0 | 1.0 | 0.00 | 0.02 | 0.02 | 75 | 1013.1 |
| 20260905200921 | 84 | 240 | 0.0 | 0.0 | 0.00 | 0.02 | 0.02 | 79 | 1013.2 |
| 20260905200417 | 82 | 226 | 0.0 | 0.0 | 0.00 | 0.02 | 0.02 | 80 | 1013.3 |
| 20260905195915 | 83 | 232 | 0.0 | 0.0 | 0.00 | 0.02 | 0.02 | 75 | 1013.3 |
| 20260905195411 | 81 | 227 | 0.0 | 0.0 | 0.00 | 0.02 | 0.02 | 78 | 1013.3 |
| 20260905194907 | 77 | 233 | 0.0 | 0.0 | 0.00 | 0.02 | 0.02 | 89 | 1013.4 |
| 20260905194405 | 75 | 246 | 0.0 | 1.0 | 0.00 | 0.02 | 0.02 | 92 | 1013.9 |
| 20260905193900 | 75 | 230 | 0.0 | 0.0 | 0.00 | 0.02 | 0.02 | 90 | 1013.8 |
| 20260905193355 | 73 | 235 | 3.0 | 3.0 | 0.00 | 0.02 | 0.02 | 93 | 1013.7 |
| 20260905192850 | 74 | 221 | 0.0 | 1.0 | 0.00 | 0.02 | 0.02 | 92 | 1013.4 |
| 20260905192346 | 75 | 224 | 0.0 | 0.0 | 0.00 | 0.02 | 0.02 | 89 | 1014.0 |
| 20260905191845 | 75 | 223 | 0.0 | 0.0 | 0.00 | 0.02 | 0.02 | 92 | 1014.2 |
| 20260905191345 | 75 | 230 | 0.0 | 0.0 | 0.05 | 0.02 | 0.02 | 92 | 1014.4 |
| 20260905190843 | 76 | 231 | 0.0 | 0.0 | 0.05 | 0.02 | 0.02 | 90 | 1014.6 |
| 20260905190342 | 78 | 236 | 0.0 | 0.0 | 0.07 | 0.01 | 0.01 | 87 | 1014.5 |
| 20260905185841 | 80 | 251 | 0.0 | 1.0 | 0.07 | 0.01 | 0.01 | 82 | 1014.9 |
| 20260905185337 | 83 | 259 | 1.0 | 1.0 | 0.00 | 0.00 | 0.00 | 73 | 1014.4 |
| 20260905184835 | 86 | 276 | 2.0 | 3.0 | 0.00 | 0.00 | 0.00 | 72 | 1014.4 |
| 20260905184335 | 88 | 254 | 1.0 | 2.0 | 0.00 | 0.00 | 0.00 | 72 | 1014.2 |
| 20260905183833 | 91 | 355 | 4.0 | 5.0 | 0.00 | 0.00 | 0.00 | 66 | 1014.3 |
| 20260905183329 | 94 | 235 | 0.0 | 0.0 | 0.00 | 0.00 | 0.00 | 58 | 1014.0 |
| 20260905182823 | 96 | 223 | 0.0 | 0.0 | 0.00 | 0.00 | 0.00 | 52 | 1014.1 |
| 20260905182323 | 97 | 237 | 0.0 | 0.0 | 0.00 | 0.00 | 0.00 | 52 | 1014.1 |
| 20260905181819 | 96 | 256 | 1.0 | 1.0 | 0.00 | 0.00 | 0.00 | 57 | 1014.0 |
| 20260905181318 | 96 | 255 | 1.0 | 1.0 | 0.00 | 0.00 | 0.00 | 52 | 1014.3 |
| 20260905180812 | 97 | 261 | 1.0 | 1.0 | 0.00 | 0.00 | 0.00 | 55 | 1014.2 |
| 20260905180307 | 95 | 236 | 0.0 | 0.0 | 0.00 | 0.00 | 0.00 | 56 | 1014.3 |
| 20260905175802 | 95 | 253 | 1.0 | 1.0 | 0.00 | 0.00 | 0.00 | 58 | 1014.4 |
| 20260905175257 | 94 | 254 | 1.0 | 1.0 | 0.00 | 0.00 | 0.00 | 59 | 1014.4 |
| 20260905174752 | 95 | 247 | 1.0 | 1.0 | 0.00 | 0.00 | 0.00 | 62 | 1014.2 |
| 20260905174247 | 95 | 241 | 0.0 | 0.0 | 0.00 | 0.00 | 0.00 | 60 | 1014.3 |
| 20260905173738 | 94 | 239 | 1.0 | 1.0 | 0.00 | 0.00 | 0.00 | 62 | 1014.2 |
| 20260905173233 | 95 | 240 | 0.0 | 1.0 | 0.00 | 0.00 | 0.00 | 59 | 1014.3 |
| 20260905172732 | 95 | 248 | 1.0 | 1.0 | 0.00 | 0.00 | 0.00 | 57 | 1014.4 |
| 20260905172227 | 95 | 279 | 1.0 | 2.0 | 0.00 | 0.00 | 0.00 | 61 | 1014.5 |
| 20260905171723 | 94 | 267 | 2.0 | 2.0 | 0.00 | 0.00 | 0.00 | 65 | 1014.5 |
| 20260905171219 | 94 | 241 | 0.0 | 1.0 | 0.00 | 0.00 | 0.00 | 62 | 1014.6 |
| 20260905170716 | 93 | 262 | 1.0 | 2.0 | 0.00 | 0.00 | 0.00 | 60 | 1014.6 |
| 20260905170215 | 94 | 206 | 0.0 | 1.0 | 0.00 | 0.00 | 0.00 | 62 | 1014.7 |
| 20260905165709 | 93 | 236 | 0.0 | 1.0 | 0.00 | 0.00 | 0.00 | 64 | 1015.0 |
| 20260905165205 | 93 | 268 | 1.0 | 1.0 | 0.00 | 0.00 | 0.00 | 62 | 1015.0 |
| 20260905164659 | 94 | 244 | 0.0 | 0.0 | 0.00 | 0.00 | 0.00 | 64 | 1014.8 |
| 20260905164159 | 93 | 245 | 1.0 | 1.0 | 0.00 | 0.00 | 0.00 | 63 | 1014.9 |
| 20260905163655 | 93 | 215 | 0.0 | 0.0 | 0.00 | 0.00 | 0.00 | 66 | 1015.1 |
| 20260905163151 | 93 | 203 | 2.0 | 2.0 | 0.00 | 0.00 | 0.00 | 63 | 1015.1 |
| 20260905162647 | 93 | 240 | 1.0 | 1.0 | 0.00 | 0.00 | 0.00 | 65 | 1015.3 |
| 20260905162147 | 92 | 221 | 0.0 | 0.0 | 0.00 | 0.00 | 0.00 | 65 | 1015.3 |
| 20260905161647 | 94 | 224 | 0.0 | 1.0 | 0.00 | 0.00 | 0.00 | 65 | 1015.2 |
| 20260905161144 | 93 | 223 | 0.0 | 0.0 | 0.00 | 0.00 | 0.00 | 66 | 1015.3 |
| 20260905160638 | 93 | 197 | 1.0 | 1.0 | 0.00 | 0.00 | 0.00 | 66 | 1015.3 |
| 20260905160132 | 92 | 231 | 1.0 | 1.0 | 0.00 | 0.00 | 0.00 | 71 | 1015.1 |
| 20260905155627 | 90 | 188 | 1.0 | 1.0 | 0.00 | 0.00 | 0.00 | 70 | 1015.3 |
| 20260905155125 | 91 | 221 | 2.0 | 2.0 | 0.00 | 0.00 | 0.00 | 71 | 1015.3 |
| 20260905154620 | 90 | 224 | 0.0 | 0.0 | 0.00 | 0.00 | 0.00 | 72 | 1015.4 |
| 20260905154116 | 89 | 224 | 0.0 | 0.0 | 0.00 | 0.00 | 0.00 | 73 | 1015.7 |
| 20260905153611 | 89 | 238 | 0.0 | 0.0 | 0.00 | 0.00 | 0.00 | 73 | 1015.7 |
| 20260905153106 | 89 | 219 | 0.0 | 0.0 | 0.00 | 0.00 | 0.00 | 72 | 1015.6 |
| 20260905152602 | 89 | 224 | 0.0 | 0.0 | 0.00 | 0.00 | 0.00 | 73 | 1015.4 |
| 20260905152056 | 87 | 229 | 1.0 | 2.0 | 0.00 | 0.00 | 0.00 | 75 | 1015.2 |
| 20260905151551 | 88 | 204 | 0.0 | 1.0 | 0.00 | 0.00 | 0.00 | 72 | 1015.6 |
| 20260905151046 | 88 | 233 | 1.0 | 1.0 | 0.00 | 0.00 | 0.00 | 73 | 1015.3 |
| 20260905150542 | 87 | 227 | 1.0 | 1.0 | 0.00 | 0.00 | 0.00 | 74 | 1015.7 |
| 20260905150040 | 87 | 222 | 1.0 | 2.0 | 0.00 | 0.00 | 0.00 | 73 | 1015.7 |
| 20260905145533 | 88 | 246 | 1.0 | 1.0 | 0.00 | 0.00 | 0.00 | 73 | 1015.6 |
| 20260905145032 | 87 | 234 | 1.0 | 1.0 | 0.00 | 0.00 | 0.00 | 74 | 1015.6 |
| 20260905144528 | 86 | 222 | 2.0 | 2.0 | 0.00 | 0.00 | 0.00 | 76 | 1015.5 |
| 20260905144026 | 86 | 221 | 0.0 | 0.0 | 0.00 | 0.00 | 0.00 | 79 | 1015.6 |
| 20260905143526 | 84 | 207 | 0.0 | 0.0 | 0.00 | 0.00 | 0.00 | 80 | 1015.6 |
| 20260905143021 | 83 | 228 | 0.0 | 1.0 | 0.00 | 0.00 | 0.00 | 83 | 1015.8 |
| 20260905142520 | 82 | 232 | 2.0 | 3.0 | 0.00 | 0.00 | 0.00 | 83 | 1015.8 |
| 20260905142015 | 83 | 226 | 0.0 | 1.0 | 0.00 | 0.00 | 0.00 | 81 | 1015.7 |
| 20260905141514 | 82 | 220 | 0.0 | 0.0 | 0.00 | 0.00 | 0.00 | 83 | 1015.7 |
| 20260905141012 | 80 | 224 | 0.0 | 1.0 | 0.00 | 0.00 | 0.00 | 85 | 1015.6 |
| 20260905140506 | 80 | 231 | 1.0 | 2.0 | 0.00 | 0.00 | 0.00 | 86 | 1015.7 |
| 20260905140005 | 80 | 206 | 1.0 | 1.0 | 0.00 | 0.00 | 0.00 | 86 | 1015.4 |
| 20260905135501 | 79 | 201 | 1.0 | 1.0 | 0.00 | 0.00 | 0.00 | 88 | 1015.8 |
| 20260905134956 | 78 | 221 | 0.0 | 0.0 | 0.00 | 0.00 | 0.00 | 89 | 1015.8 |
| 20260905134455 | 78 | 226 | 0.0 | 1.0 | 0.00 | 0.00 | 0.00 | 89 | 1015.8 |
| 20260905133954 | 78 | 230 | 0.0 | 0.0 | 0.00 | 0.00 | 0.00 | 90 | 1015.6 |
| 20260905133449 | 77 | 223 | 0.0 | 1.0 | 0.00 | 0.00 | 0.00 | 91 | 1015.7 |
| 20260905132944 | 77 | 212 | 1.0 | 1.0 | 0.00 | 0.00 | 0.00 | 91 | 1015.9 |
| 20260905132439 | 77 | 226 | 0.0 | 0.0 | 0.00 | 0.00 | 0.00 | 92 | 1015.7 |
| 20260905131939 | 76 | 203 | 0.0 | 0.0 | 0.00 | 0.00 | 0.00 | 93 | 1016.1 |
| 20260905131436 | 76 | 222 | 0.0 | 1.0 | 0.00 | 0.00 | 0.00 | 94 | 1016.0 |
| 20260905130935 | 76 | 228 | 0.0 | 0.0 | 0.00 | 0.00 | 0.00 | 95 | 1016.3 |
| 20260905130429 | 75 | 226 | 1.0 | 1.0 | 0.00 | 0.00 | 0.00 | 95 | 1016.1 |
| 20260905125929 | 75 | 222 | 0.0 | 0.0 | 0.00 | 0.00 | 0.00 | 95 | 1016.0 |
| 20260905125424 | 75 | 230 | 0.0 | 0.0 | 0.00 | 0.00 | 0.00 | 96 | 1016.2 |
| 20260905124919 | 75 | 215 | 0.0 | 0.0 | 0.00 | 0.00 | 0.00 | 96 | 1016.2 |
| 20260905124416 | 74 | 232 | 0.0 | 1.0 | 0.00 | 0.00 | 0.00 | 96 | 1016.3 |
| 20260905123916 | 75 | 231 | 0.0 | 1.0 | 0.00 | 0.00 | 0.00 | 95 | 1016.1 |
| 20260905123413 | 74 | 224 | 0.0 | 0.0 | 0.00 | 0.00 | 0.00 | 96 | 1016.0 |
| 20260905122908 | 74 | 228 | 0.0 | 0.0 | 0.00 | 0.00 | 0.00 | 96 | 1016.2 |
| 20260905122407 | 74 | 228 | 0.0 | 0.0 | 0.00 | 0.00 | 0.00 | 95 | 1015.9 |
| 20260905121902 | 75 | 228 | 1.0 | 1.0 | 0.00 | 0.00 | 0.00 | 96 | 1015.9 |
| 20260905121358 | 74 | 230 | 0.0 | 1.0 | 0.00 | 0.00 | 0.00 | 96 | 1015.7 |
| 20260905120858 | 74 | 222 | 0.0 | 0.0 | 0.00 | 0.00 | 0.00 | 97 | 1015.7 |
| 20260905120357 | 74 | 224 | 0.0 | 0.0 | 0.00 | 0.00 | 0.00 | 96 | 1015.8 |
| 20260905115852 | 74 | 226 | 0.0 | 0.0 | 0.00 | 0.00 | 0.00 | 97 | 1015.7 |
| 20260905115352 | 74 | 228 | 0.0 | 0.0 | 0.00 | 0.00 | 0.00 | 97 | 1015.6 |
| 20260905114847 | 74 | 230 | 0.0 | 0.0 | 0.00 | 0.00 | 0.00 | 97 | 1015.6 |
| 20260905114346 | 73 | 221 | 0.0 | 0.0 | 0.00 | 0.00 | 0.00 | 97 | 1015.8 |
| 20260905113839 | 73 | 222 | 0.0 | 1.0 | 0.00 | 0.00 | 0.00 | 98 | 1015.7 |
| 20260905113335 | 73 | 228 | 0.0 | 0.0 | 0.00 | 0.00 | 0.00 | 98 | 1015.3 |
| 20260905112830 | 73 | 230 | 0.0 | 1.0 | 0.00 | 0.00 | 0.00 | 98 | 1015.3 |
| 20260905112325 | 73 | 230 | 0.0 | 1.0 | 0.00 | 0.00 | 0.00 | 98 | 1015.4 |